Northeast Philadelphia, PA

12:33 PM EST on November 15, 2019 (GMT -0500)
Northeast Philadelphia

Weather History for KPNE - September, 2019

Change the Weather History Date:

Saturday, September 14, 2019

  Actual Average Record
Temperature  
Mean Temperature 70 °F -  
Max Temperature 80 °F 76 °F 93 °F (2008)
Min Temperature 62 °F 57 °F 51 °F (2001)
Cooling Degree Days 6    
Growing Degree Days 20 (Base 50)    
Moisture  
Dew Point 60 °F    
Average Humidity 67    
Maximum Humidity 85    
Minimum Humidity 58    
Precipitation  
Precipitation 0.01 in - - ()
Sea Level Pressure  
Sea Level Pressure 30.27 in    
Wind  
Wind Speed 4 mph ()    
Max Wind Speed 10 mph    
Max Gust Speed -    
Visibility 10.0 miles    
Events      
Averages and records for this station are not official NWS values.
T = Trace of Precipitation, MM = Missing Value Source: Averaged Metar Reports

Daily Weather History Graph

Daily Weather History Graph

Search for Another Location

Airport or City:

Astronomy

Sep. 14, 2019 Rise Set
Actual Time 6:39 AM EDT 7:10 PM EDT
Civil Twilight 6:12 AM EDT 7:38 PM EDT
Nautical Twilight 5:40 AM EDT 8:10 PM EDT
Astronomical Twilight 5:07 AM EDT 8:42 PM EDT
Moon 7:50 PM EDT (9/14) 6:51 AM EDT (9/14)
Length of Visible Light 13h 25m
Length of Day
12h 31m
Full, 100% of the Moon is Illuminated
Sep 14
Full
Sep 21
Last Quarter
Sep 28
New
Oct 5
First Quarter
Oct 13
Full

Hourly Weather History & Observations

Time (EDT) Temp. Dew Point Humidity Pressure Visibility Wind Dir Wind Speed Gust Speed Precip Events Conditions
12:54 AM 64.9 °F 52.0 °F 63% 30.40 in 10.0 mi ESE 6.9 mph - N/A   Overcast
1:54 AM 64.0 °F 53.1 °F 67% 30.38 in 10.0 mi East 3.5 mph - N/A   Overcast
2:54 AM 64.0 °F 54.0 °F 70% 30.35 in 10.0 mi East 4.6 mph - N/A   Overcast
3:54 AM 64.9 °F 54.0 °F 68% 30.34 in 10.0 mi ESE 4.6 mph - N/A   Overcast
4:54 AM 63.0 °F 55.0 °F 75% 30.35 in 10.0 mi Calm Calm - N/A   Mostly Cloudy
5:54 AM 63.0 °F 55.0 °F 75% 30.34 in 10.0 mi East 3.5 mph - N/A   Partly Cloudy
6:54 AM 62.1 °F 55.0 °F 78% 30.33 in 10.0 mi Calm Calm - N/A   Clear
7:54 AM 64.9 °F 57.0 °F 75% 30.33 in 10.0 mi ESE 3.5 mph - N/A   Mostly Cloudy
8:54 AM 69.1 °F 57.9 °F 68% 30.33 in 10.0 mi SSE 3.5 mph - N/A   Mostly Cloudy
9:54 AM 72.0 °F 60.1 °F 66% 30.33 in 10.0 mi Variable 3.5 mph - N/A   Overcast
10:54 AM 75.0 °F 61.0 °F 62% 30.32 in 10.0 mi Variable 6.9 mph - N/A   Overcast
11:54 AM 75.9 °F 61.0 °F 60% 30.30 in 10.0 mi Variable 5.8 mph - N/A   Overcast
12:54 PM 77.0 °F 62.1 °F 60% 30.27 in 10.0 mi SW 8.1 mph - N/A   Overcast
1:54 PM 78.1 °F 63.0 °F 60% 30.25 in 10.0 mi South 9.2 mph - N/A   Overcast
2:54 PM 78.1 °F 63.0 °F 60% 30.22 in 10.0 mi SSW 9.2 mph - N/A   Overcast
3:54 PM 79.0 °F 63.0 °F 58% 30.20 in 10.0 mi SW 10.4 mph - N/A   Overcast
4:54 PM 79.0 °F 63.0 °F 58% 30.19 in 10.0 mi SSW 10.4 mph - N/A   Overcast
5:54 PM 79.0 °F 64.0 °F 60% 30.18 in 10.0 mi SW 9.2 mph - N/A   Mostly Cloudy
6:54 PM 78.1 °F 64.0 °F 62% 30.18 in 10.0 mi SSW 4.6 mph - N/A   Overcast
7:54 PM 77.0 °F 64.9 °F 66% 30.19 in 10.0 mi SSW 3.5 mph - N/A   Mostly Cloudy
8:54 PM 77.0 °F 66.0 °F 69% 30.19 in 10.0 mi Calm Calm - N/A   Overcast
9:54 PM 75.9 °F 66.9 °F 74% 30.20 in 10.0 mi Calm Calm - N/A   Overcast
10:54 PM 75.9 °F 66.9 °F 74% 30.19 in 10.0 mi South 3.5 mph - N/A   Overcast
11:54 PM 73.9 °F 69.1 °F 85% 30.18 in 9.0 mi Calm Calm - 0.01 in   Overcast